Location: Calvera
(42.3882°N, 0.6137°E)
Time: 18:33:33
(UTC+00:00)

PAYLOAD A - Pass Details

Date: 28 October 2020
Orbit: 692 x 831 km, 98.3° (Epoch: 22 November)

Event Time Altitude Azimuth Distance (km) Brightness Sun altitude
Rises 04:28:26 0° 6° (N) 3,231 7.3 -22.3°
Reaches altitude 10° 04:30:47 10° 0° (N) 2,322 6.5 -21.9°
Maximum altitude 04:35:37 44° 290° (WNW) 1,091 4.3 -21.0°
Enters shadow 04:35:50 43° 283° (WNW) 1,095 4.3 -20.9°
